GW1095 Weather Reports


time (UTC)temp
F
wind
direction
speed
knots
gust
knots
rain 1hr
in
rain 24hr
in
rain mn
in
humidity
%
barometer
mb
20260506201540 54 298 5.2 13.0 0.00 0.87 0.82 91 1005.9
20260506200039 58 16 7.0 13.9 0.00 0.87 0.82 91 1005.3
20260506194538 61 182 1.7 5.2 0.02 0.87 0.82 94 1005.2
20260506193038 61 200 3.5 9.6 0.03 0.87 0.82 94 1005.3
20260506191540 61 205 4.3 12.2 0.07 0.87 0.82 94 1005.3
20260506190037 61 191 7.0 10.4 0.10 0.87 0.82 94 1005.3
20260506184547 61 178 7.0 13.9 0.10 0.85 0.80 95 1005.4
20260506183049 60 201 6.1 14.8 0.10 0.84 0.79 94 1005.5
20260506181605 60 191 6.1 13.0 0.13 0.80 0.75 94 1005.6
20260506180037 60 233 5.2 13.0 0.15 0.76 0.71 95 1005.6
20260506174540 59 178 5.2 13.0 0.18 0.75 0.70 95 1005.5
20260506173053 58 188 8.7 15.6 0.20 0.74 0.69 95 1005.6
20260506171535 57 188 3.5 7.8 0.16 0.67 0.62 94 1005.8
20260506170040 56 145 0.9 5.2 0.14 0.61 0.56 94 1006.1
20260506164539 56 0 0.9 3.5 0.14 0.57 0.52 94 1006.3
20260506163039 56 74 0.0 2.6 0.15 0.54 0.49 93 1006.4
20260506161537 55 74 0.9 2.6 0.15 0.51 0.46 93 1006.4
20260506160036 55 74 1.7 3.5 0.13 0.47 0.42 93 1006.8
20260506154538 55 74 0.9 2.6 0.12 0.42 0.37 93 1006.9
20260506153041 55 74 0.9 3.5 0.13 0.39 0.34 92 1007.2
20260506151543 54 74 0.9 2.6 0.13 0.36 0.31 92 1007.1
20260506150044 54 74 0.0 2.6 0.13 0.34 0.29 92 1007.2
20260506144537 54 0 0.0 0.0 0.11 0.30 0.25 92 1007.7
20260506143036 54 0 0.0 0.0 0.09 0.26 0.21 92 1008.0
20260506141535 54 0 0.0 0.0 0.09 0.23 0.18 91 1007.9
20260506140034 54 0 0.0 0.0 0.10 0.21 0.16 91 1008.4
20260506134533 54 0 0.0 4.3 0.10 0.19 0.14 91 1007.9
20260506133038 54 74 0.9 3.5 0.10 0.17 0.12 91 1007.7
20260506131540 54 108 0.9 3.5 0.08 0.14 0.09 91 1007.7
20260506130037 54 167 0.9 2.6 0.05 0.11 0.06 90 1008.2
20260506124536 54 120 0.9 2.6 0.03 0.09 0.04 90 1007.9
20260506123038 54 0 0.0 1.7 0.02 0.07 0.02 89 1008.3
20260506121539 54 233 0.0 1.7 0.01 0.06 0.01 89 1008.7
20260506120040 54 233 0.0 2.6 0.01 0.06 0.01 89 1008.6
20260506114537 54 0 0.0 2.6 0.01 0.06 0.01 88 1008.3
20260506113041 53 194 1.7 2.6 0.00 0.05 0.00 88 1008.3
20260506111535 53 14 0.0 2.6 0.00 0.05 0.00 88 1007.8
20260506110038 53 0 0.0 3.5 0.00 0.05 0.00 88 1008.0
20260506104537 53 0 0.9 3.5 0.00 0.11 0.00 87 1008.0
20260506103041 53 0 0.0 0.0 0.00 0.11 0.00 87 1007.8
20260506101536 53 0 0.0 0.0 0.00 0.11 0.00 86 1007.7
20260506100038 53 0 0.0 0.0 0.00 0.11 0.00 86 1007.7
20260506094539 53 0 0.0 0.0 0.00 0.11 0.00 85 1007.6
20260506093038 53 0 0.0 0.0 0.00 0.11 0.00 85 1007.7
20260506091543 53 0 0.0 0.0 0.00 0.11 0.00 84 1007.6
20260506090037 54 0 0.0 0.0 0.00 0.11 0.00 83 1007.7
20260506084544 54 0 0.0 0.0 0.00 0.11 0.00 83 1007.9
20260506083037 54 0 0.0 0.0 0.00 0.11 0.00 83 1008.0
20260506081537 55 0 0.0 0.0 0.00 0.11 0.00 83 1008.2
20260506073037 55 257 0.9 5.2 0.00 0.11 0.00 83 1008.7
20260506071537 56 269 0.9 6.1 0.00 0.11 0.00 83 1008.5
20260506061537 57 229 2.6 6.1 0.00 0.11 0.00 83 1008.9
20260506044539 59 214 0.0 2.6 0.00 0.11 0.00 81 1009.2
20260506043037 60 0 2.6 8.7 0.00 0.11 0.00 82 1009.1
20260506041537 60 267 1.7 7.0 0.00 0.11 0.00 82 1008.9
20260506040036 61 308 3.5 9.6 0.00 0.11 0.00 83 1008.9
20260506034537 61 315 5.2 11.3 0.00 0.11 0.11 83 1008.8
20260506033038 61 339 2.6 9.6 0.00 0.11 0.11 84 1008.8
20260506031537 61 290 1.7 7.0 0.00 0.11 0.11 84 1008.7
20260506030041 61 232 2.6 8.7 0.00 0.11 0.11 83 1008.5
20260506024556 61 236 4.3 12.2 0.01 0.11 0.11 82 1008.3
20260506023035 62 0 0.9 3.5 0.04 0.11 0.11 81 1008.1
20260506021538 62 190 1.7 3.5 0.04 0.11 0.11 81 1008.4
20260506020037 63 188 1.7 5.2 0.04 0.11 0.11 80 1008.2
20260506014537 63 175 0.9 2.6 0.02 0.09 0.09 79 1008.1
20260506013053 63 0 0.0 2.6 0.00 0.07 0.07 76 1007.8
20260506011539 63 207 0.9 2.6 0.00 0.07 0.07 75 1007.6
20260506010040 63 207 0.9 4.3 0.00 0.07 0.07 75 1007.4
20260506004538 64 0 0.9 4.3 0.00 0.07 0.07 73 1007.3
20260506003039 64 197 0.9 2.6 0.00 0.07 0.07 72 1007.0
20260506001541 65 223 1.7 3.5 0.00 0.07 0.07 71 1006.8
20260506000037 65 0 0.0 4.3 0.00 0.07 0.07 70 1006.7
20260505234538 66 0 0.0 2.6 0.00 0.07 0.07 69 1006.4
20260505233036 66 0 0.0 2.6 0.00 0.07 0.07 69 1006.2
20260505231541 66 0 1.7 4.3 0.00 0.07 0.07 69 1006.3
20260505230051 67 178 0.9 4.3 0.00 0.07 0.07 67 1006.2
20260505224537 67 208 1.7 7.8 0.00 0.07 0.07 66 1006.0
20260505223049 67 264 3.5 8.7 0.00 0.07 0.07 65 1006.0
20260505221537 68 255 11.3 26.1 0.00 0.07 0.07 64 1006.4
20260505220042 69 255 13.0 23.5 0.00 0.07 0.07 62 1005.9
20260505214532 69 255 7.0 17.4 0.00 0.07 0.07 59 1006.5
20260505213051 70 288 3.5 13.0 0.00 0.07 0.07 57 1005.8
20260505211537 71 273 10.4 26.1 0.00 0.07 0.07 55 1005.5
20260505210038 73 334 5.2 12.2 0.01 0.07 0.07 59 1004.8
20260505204537 74 329 3.5 12.2 0.01 0.07 0.07 57 1004.0
20260505203050 76 325 2.6 8.7 0.01 0.07 0.07 56 1003.7